Total_Precipitation_Accumulation
0.46 0.39 0.37 0.44 0.43 0.37 0.33 0.37 0.43 0.46 0.47 0.55 0.67 0.76 0.85 1.02 1.22 1.27 1.34 1.48 1.49 1.50 1.64 1.75 1.81 1.76 1.70 1.80 1.97 2.32 2.18 1.82 1.66 1.70 1.57 1.40 1.36 1.44 1.44 1.58 1.67 1.58 1.50
0.37 0.32 0.31 0.34 0.35 0.35 0.33 0.33 0.41 0.51 0.56 0.60 0.73 0.87 1.09 1.21 1.36 1.50 1.50 1.52 1.57 1.61 1.70 1.91 2.02 1.97 1.97 2.07 2.13 2.38 2.53 2.24 2.04 2.07 2.24 1.99 1.78 1.45 1.22 1.32 1.46 1.52 1.55
0.32 0.25 0.27 0.29 0.30 0.31 0.38 0.39 0.47 0.68 0.87 0.95 1.15 1.42 1.67 1.74 1.67 1.68 1.74 1.71 1.73 1.80 1.77 1.89 2.08 2.08 2.07 2.12 2.32 2.64 2.95 2.87 2.58 2.37 2.56 2.30 2.03 1.93 1.43 1.17 1.25 1.40 1.52
0.39 0.30 0.29 0.32 0.29 0.33 0.45 0.62 0.81 1.10 1.33 1.45 1.62 1.83 1.93 1.96 1.89 1.90 1.90 1.88 1.79 1.71 1.71 1.83 2.03 2.19 2.30 2.40 2.47 2.48 2.86 3.14 2.95 2.77 2.44 2.14 2.01 2.17 1.99 1.52 1.25 1.31 1.36
0.43 0.43 0.42 0.47 0.49 0.59 0.80 1.12 1.37 1.57 1.70 1.74 1.79 1.98 2.12 2.27 2.29 2.18 2.03 1.92 1.88 1.81 1.71 1.76 1.83 1.88 1.99 2.14 2.29 2.37 2.61 2.81 2.97 2.93 2.71 2.46 2.30 1.89 1.89 1.94 1.70 1.45 1.24
0.47 0.57 0.70 0.83 0.92 1.01 1.21 1.43 1.58 1.72 1.69 1.66 1.69 1.81 1.99 2.15 2.17 2.20 2.16 2.03 1.90 1.80 1.68 1.63 1.71 1.74 1.74 1.90 2.03 2.14 2.41 2.62 2.76 2.81 2.69 2.58 2.55 2.26 2.00 1.83 1.81 1.67 1.44
0.56 0.76 0.92 1.08 1.19 1.29 1.40 1.43 1.42 1.49 1.51 1.48 1.48 1.54 1.61 1.64 1.69 1.80 1.73 1.60 1.49 1.44 1.41 1.33 1.38 1.51 1.56 1.75 1.84 1.80 1.87 2.06 2.29 2.47 2.50 2.49 2.41 2.36 2.28 2.12 1.93 1.70 1.40
0.83 0.95 1.06 1.17 1.22 1.34 1.40 1.35 1.31 1.30 1.25 1.20 1.20 1.20 1.24 1.29 1.30 1.30 1.25 1.18 1.14 1.11 1.09 1.08 1.08 1.14 1.22 1.44 1.67 1.67 1.68 1.74 1.84 1.94 2.20 2.35 2.31 2.33 2.12 2.01 2.06 1.84 1.54
1.08 1.26 1.26 1.16 1.09 1.15 1.22 1.21 1.16 1.10 1.02 0.96 0.98 0.99 1.05 1.08 1.03 0.99 0.93 0.92 0.86 0.86 0.84 0.88 0.97 1.03 1.01 1.12 1.26 1.45 1.53 1.60 1.67 1.69 1.85 2.00 2.10 2.07 1.89 1.91 2.02 1.91 1.62
1.16 1.43 1.54 1.42 1.16 1.00 1.03 1.01 0.98 1.01 1.00 0.96 0.98 0.95 0.86 0.78 0.75 0.77 0.71 0.69 0.74 0.77 0.78 0.76 0.78 0.84 0.87 0.97 1.10 1.16 1.27 1.36 1.52 1.68 1.81 1.83 1.88 1.93 1.81 1.80 1.93 1.92 1.72
1.37 1.49 1.51 1.38 1.21 0.95 0.90 0.89 0.86 0.89 0.95 0.89 0.91 0.91 0.80 0.66 0.62 0.57 0.53 0.54 0.57 0.61 0.62 0.65 0.73 0.74 0.76 0.78 0.80 0.85 0.93 1.02 1.12 1.19 1.32 1.52 1.71 1.79 1.78 1.82 1.88 1.93 1.81
1.06 1.04 1.13 1.14 1.08 0.95 0.89 0.95 0.99 0.99 0.90 0.81 0.80 0.81 0.74 0.64 0.64 0.57 0.49 0.51 0.56 0.57 0.57 0.62 0.66 0.66 0.72 0.75 0.74 0.73 0.78 0.89 0.97 0.98 1.00 1.10 1.34 1.51 1.64 1.71 1.73 1.81 1.79
0.80 0.71 0.81 0.96 0.91 0.84 0.87 0.96 1.09 1.10 1.00 0.87 0.79 0.80 0.75 0.73 0.75 0.65 0.56 0.55 0.63 0.73 0.74 0.73 0.75 0.71 0.73 0.74 0.74 0.77 0.80 0.83 0.88 0.90 0.91 0.99 1.11 1.27 1.36 1.44 1.55 1.63 1.75
0.64 0.58 0.54 0.59 0.60 0.62 0.63 0.75 1.01 1.22 1.17 1.06 0.95 0.89 0.83 0.81 0.79 0.68 0.61 0.57 0.61 0.65 0.66 0.73 0.80 0.87 0.91 0.88 0.83 0.83 0.83 0.79 0.81 0.87 0.94 0.96 0.98 1.15 1.36 1.45 1.52 1.55 1.66
0.42 0.37 0.35 0.37 0.38 0.43 0.50 0.59 0.88 1.09 1.10 1.10 0.98 0.88 0.79 0.72 0.67 0.65 0.66 0.60 0.55 0.54 0.53 0.62 0.70 0.80 0.90 0.94 0.93 0.81 0.71 0.71 0.75 0.75 0.76 0.84 0.91 0.99 1.18 1.30 1.52 1.55 1.66
0.33 0.32 0.30 0.28 0.25 0.25 0.32 0.40 0.58 0.75 0.85 0.91 0.87 0.74 0.72 0.64 0.57 0.60 0.67 0.66 0.55 0.50 0.50 0.54 0.51 0.54 0.59 0.78 0.79 0.68 0.56 0.59 0.67 0.73 0.74 0.74 0.77 0.81 0.88 0.92 1.16 1.36 1.48
0.34 0.36 0.34 0.32 0.29 0.26 0.26 0.29 0.35 0.45 0.54 0.60 0.61 0.52 0.51 0.62 0.65 0.67 0.65 0.58 0.47 0.48 0.48 0.42 0.38 0.40 0.44 0.52 0.52 0.59 0.56 0.56 0.59 0.67 0.75 0.80 0.78 0.85 0.94 0.92 0.97 1.07 1.14
0.36 0.33 0.30 0.28 0.26 0.23 0.24 0.26 0.26 0.29 0.32 0.32 0.30 0.27 0.36 0.50 0.53 0.50 0.46 0.41 0.41 0.45 0.50 0.43 0.39 0.44 0.43 0.47 0.54 0.57 0.55 0.65 0.71 0.70 0.69 0.79 0.86 0.93 1.10 1.08 1.15 1.09 1.00
0.17 0.15 0.13 0.12 0.12 0.12 0.13 0.13 0.11 0.12 0.13 0.13 0.13 0.16 0.19 0.22 0.24 0.21 0.23 0.30 0.36 0.40 0.36 0.40 0.53 0.53 0.53 0.62 0.57 0.49 0.54 0.66 0.74 0.69 0.70 0.80 0.90 1.08 1.20 1.21 1.22 1.13 1.05
0.05 0.07 0.09 0.09 0.09 0.09 0.11 0.10 0.10 0.10 0.10 0.11 0.13 0.14 0.14 0.17 0.17 0.18 0.19 0.22 0.25 0.31 0.33 0.37 0.50 0.55 0.61 0.62 0.48 0.45 0.55 0.67 0.75 0.75 0.73 0.93 0.94 1.04 1.09 1.14 1.26 1.29 1.16
0.06 0.07 0.08 0.08 0.09 0.09 0.10 0.10 0.09 0.11 0.14 0.15 0.14 0.12 0.13 0.16 0.21 0.25 0.24 0.23 0.22 0.24 0.28 0.32 0.38 0.38 0.39 0.39 0.39 0.41 0.47 0.57 0.70 0.72 0.73 0.70 0.83 0.85 0.96 1.08 1.15 1.37 1.26
0.06 0.09 0.09 0.09 0.11 0.11 0.11 0.11 0.10 0.13 0.16 0.15 0.15 0.14 0.15 0.18 0.21 0.29 0.31 0.27 0.26 0.23 0.23 0.29 0.36 0.37 0.32 0.29 0.30 0.35 0.41 0.52 0.57 0.58 0.65 0.64 0.73 0.78 0.85 0.87 1.05 1.24 1.20
0.06 0.08 0.10 0.12 0.12 0.13 0.14 0.14 0.14 0.15 0.16 0.16 0.15 0.16 0.17 0.19 0.21 0.24 0.26 0.28 0.26 0.27 0.27 0.29 0.33 0.35 0.35 0.33 0.36 0.39 0.44 0.47 0.43 0.40 0.55 0.62 0.70 0.69 0.68 0.80 1.00 1.06 1.09
0.05 0.06 0.07 0.10 0.15 0.17 0.18 0.19 0.20 0.21 0.20 0.19 0.19 0.18 0.20 0.22 0.25 0.27 0.29 0.30 0.32 0.32 0.32 0.32 0.36 0.38 0.38 0.36 0.34 0.37 0.40 0.41 0.40 0.40 0.55 0.67 0.73 0.70 0.69 0.76 0.89 0.95 1.08
0.09 0.07 0.07 0.08 0.12 0.17 0.19 0.21 0.21 0.22 0.23 0.23 0.23 0.23 0.23 0.24 0.28 0.32 0.34 0.32 0.33 0.35 0.33 0.35 0.38 0.38 0.35 0.35 0.36 0.38 0.40 0.42 0.44 0.53 0.68 0.80 0.81 0.82 0.79 0.82 0.92 0.90 0.88
0.08 0.09 0.09 0.09 0.09 0.12 0.13 0.16 0.16 0.18 0.20 0.24 0.25 0.23 0.26 0.30 0.31 0.31 0.30 0.32 0.32 0.35 0.34 0.33 0.35 0.37 0.35 0.36 0.38 0.42 0.45 0.44 0.55 0.72 0.87 0.97 1.04 1.04 0.99 0.96 0.94 0.87 0.85